If you wish to contribute or participate in the discussions about articles you are invited to join SKYbrary as a registered user

 Actions

Kathmandu/Tribhuvan International

From SKYbrary Wiki

VNKT /
Revision as of 10:29, 16 June 2010 by Editor1 (talk | contribs)
Airport
ICAO: VNKT
Summary
Name Kathmandu/Tribhuvan International
Region Asia and Pacific
Territory Nepal NP.gif
Location Kathmandu, Nepal
Serving
Coordinates 27° 41' 50.00" N, 85° 21' 28.00" E
Runways
Designator Length Width Surface ROPS
2/20 3050 m10,006.562 ft
45 m147.638 ft
ASP yes/yes


METAR
Observation VNKT 260050Z 00000KT 6000 FEW010 19/17 Q1012 NOSIG
Station Kathmandu Airport
Date/Time 26 May 2020 00:50:00
Wind direction
Wind speed 00 kts
Lowest cloud amount few clouds
Temperature 19°C
Dew point 17°C
Humidity 88%
QNH 1012 hPa
Weather condition n/a


Kathmandu/Tribhuvan International Airport

ICAO: VNKT IATA: ---

Description

International airport serving the capital city of Nepal.

Climatology

Humid “subtropical” climate (Köppen climate classification Cwa) - characterized by hot, humid summers and cool winters. Significant amounts of precipitation occur in all seasons in most areas. Humid subtropical climates in Asia differ from those in other continents, in that they generally have a pronounced dry winter.

Maps

Terrain

Loading map...

Airport Layout

Loading map...

Accidents & Serious Incidents at or in vicinity of VNKT